Weather in Pechera

Ukraine / Vinnytsia Region     48°51′18″N   28°43′12″E
temp.,
°C
wind,
m/s
gust,
m/s
humid.,
%
clouds,
%
prec.,
mm/h
press.,
hPa
HPBL,
m
13 april, tue
tue1300:00+6se238698 0.0 102041
03:00+6se2288100 0.0 102011
06:00+6ese228835 0.0 101912
09:00+8ese2380100 0.0 1019158
12:00+14se2254100 0.0 1018967
15:00+15sse2248100 0.0 10171553
18:00+14se3458100 0.0 1016284
21:00+10se51071100 0.0 1016277
14 april, wed
wed1400:00+9se41083100 0.0 1016291
03:00+8se41076100 0.0 1015316
06:00+7se4880100 0.0 1014281
09:00+9sse5770100 0.0 1015450
12:00+12sse565784 0.0 10141054
15:00+13se6655100 0.1 10121627
18:00+12se4657100 0.1 10121139
21:00+10sse3671100 0.1 1013223
15 april, thu
thu1500:00+8s2379100 0.0 101274
03:00+7wsw2389100 0.4 1012199
06:00+7nnw3596100 2.6 1011281
09:00+8e2595100 3.4 1011313
12:00+8e2288100 0.3 1011425
15:00+8nw1290100 0.8 1011325
18:00+8wnw2490100 0.4 1011315
21:00+7wnw2395100 1.2 1011111
16 april, fri
fri1600:00+7nw3596100 0.4 1010352
03:00+5w5894100 1.1 1010365
06:00+4w5893100 0.5 1010327
09:00+3w5893100 0.6 1011356
12:00+4wsw5792100 0.6 1011433
15:00+4wsw61092100 1.4 1012438
18:00+4w61094100 1.8 1013397
21:00+4w61094100 3.8 1014454
17 april, sat
sat1700:00+3w5997100 0.1 1015338
03:00+4wnw599695 0.1 1016339
06:00+4w4796100 0.0 1017259
09:00+5w3492100 0.0 1018329
12:00+6wsw3388100 0.0 1019430
15:00+8sw337891 0.1 1019738
18:00+8wsw227997 0.1 1019443
21:00+6sw228961 0.1 102070